Kake, AK

9:19 AM AKDT on July 20, 2017 (GMT -0800)
Kake

Weather History for PAFE - April, 2013

Change the Weather History Date:

Sunday, April 7, 2013

  Actual Average Record
Temperature  
Mean Temperature 40 °F -  
Max Temperature 46 °F 43 °F 53 °F (2004)
Min Temperature 32 °F 30 °F 21 °F (2002)
Degree Days  
Heating Degree Days 26    
Moisture  
Dew Point 34 °F    
Average Humidity 79    
Maximum Humidity 93    
Minimum Humidity 62    
Precipitation  
Precipitation 0.00 in - - ()
Sea Level Pressure  
Sea Level Pressure 29.93 in    
Wind  
Wind Speed 6 mph (ENE)    
Max Wind Speed 12 mph    
Max Gust Speed -    
Visibility 10 miles    
Events      
Averages and records for this station are not official NWS values.
T = Trace of Precipitation, MM = Missing Value Source: NWS Daily Summary

Daily Weather History Graph

Daily Weather History Graph

Search for Another Location

Airport or City:

Trip Planner

Search our weather history database for the weather conditions in past years. The results will help you decide how hot, cold, wet, or windy it might be!

Date:

Astronomy

Apr. 07, 2013 Rise Set
Actual Time 6:07 AM AKDT 7:48 PM AKDT
Civil Twilight 5:27 AM AKDT 8:29 PM AKDT
Nautical Twilight 4:37 AM AKDT 9:19 PM AKDT
Astronomical Twilight 3:40 AM AKDT 10:18 PM AKDT
Moon 4:57 AM AKDT (4/7) 5:06 PM AKDT (4/7)
Length of Visible Light 15h 01m
Length of Day
13h 41m
Waning Crescent, 7% of the Moon is Illuminated
Apr 7
Waning Crescent
Apr 10
New
Apr 18
First Quarter
Apr 25
Full
May 2
Last Quarter

Hourly Weather History & Observations

Time (AKDT) Temp. Windchill Dew Point Humidity Pressure Visibility Wind Dir Wind Speed Gust Speed Precip Events Conditions
12:16 AM 41.0 °F 36.4 °F 35.6 °F 81% 29.78 in 10.0 mi ESE 6.9 mph - N/A   Mostly Cloudy
12:36 AM 39.2 °F 34.2 °F 35.6 °F 87% 29.78 in 10.0 mi East 6.9 mph - N/A   Scattered Clouds
12:56 AM 39.2 °F 34.2 °F 35.6 °F 87% 29.79 in 10.0 mi East 6.9 mph - N/A   Mostly Cloudy
1:16 AM 39.2 °F 34.2 °F 35.6 °F 87% 29.80 in 10.0 mi East 6.9 mph - N/A   Overcast
1:36 AM 39.2 °F 37.0 °F 35.6 °F 87% 29.81 in 10.0 mi ESE 3.5 mph - N/A   Overcast
1:56 AM 39.2 °F 35.9 °F 35.6 °F 87% 29.81 in 10.0 mi SE 4.6 mph - N/A   Overcast
2:16 AM 39.2 °F 34.2 °F 35.6 °F 87% 29.81 in 10.0 mi East 6.9 mph - N/A   Mostly Cloudy
2:36 AM 37.4 °F 32.8 °F 33.8 °F 87% 29.82 in 10.0 mi East 5.8 mph - N/A   Mostly Cloudy
2:56 AM 37.4 °F 32.1 °F 33.8 °F 87% 29.82 in 10.0 mi East 6.9 mph - N/A   Overcast
3:16 AM 37.4 °F 31.4 °F 33.8 °F 87% 29.82 in 10.0 mi East 8.1 mph - N/A   Mostly Cloudy
3:36 AM 39.2 °F 35.9 °F 35.6 °F 87% 29.83 in 10.0 mi ESE 4.6 mph - N/A   Overcast
3:56 AM 39.2 °F 37.0 °F 35.6 °F 87% 29.84 in 10.0 mi SSE 3.5 mph - N/A   Overcast
4:16 AM 37.4 °F 32.1 °F 35.6 °F 93% 29.84 in 10.0 mi ESE 6.9 mph - N/A   Mostly Cloudy
4:36 AM 35.6 °F 30.7 °F 32.0 °F 87% 29.84 in 10.0 mi East 5.8 mph - N/A   Mostly Cloudy
4:56 AM 35.6 °F 29.9 °F 32.0 °F 87% 29.85 in 10.0 mi East 6.9 mph - N/A   Mostly Cloudy
5:16 AM 35.6 °F 30.7 °F 33.8 °F 93% 29.86 in 10.0 mi East 5.8 mph - N/A   Mostly Cloudy
5:36 AM 35.6 °F 30.7 °F 33.8 °F 93% 29.86 in 10.0 mi East 5.8 mph - N/A   Overcast
5:56 AM 37.4 °F 32.8 °F 33.8 °F 87% 29.86 in 8.0 mi ESE 5.8 mph - N/A   Overcast
6:16 AM 37.4 °F 32.1 °F 33.8 °F 87% 29.87 in 10.0 mi East 6.9 mph - N/A   Overcast
6:36 AM 35.6 °F 30.7 °F 33.8 °F 93% 29.88 in 10.0 mi East 5.8 mph - N/A   Mostly Cloudy
6:56 AM 35.6 °F 30.7 °F 32.0 °F 87% 29.88 in 10.0 mi East 5.8 mph - N/A   Mostly Cloudy
7:16 AM 35.6 °F 29.2 °F 33.8 °F 93% 29.88 in 10.0 mi East 8.1 mph - N/A   Mostly Cloudy
7:36 AM 35.6 °F 30.7 °F 32.0 °F 87% 29.89 in 10.0 mi East 5.8 mph - N/A   Scattered Clouds
7:56 AM 35.6 °F - 33.8 °F 93% 29.90 in 10.0 mi Calm Calm - N/A   Mostly Cloudy
8:16 AM 35.6 °F 29.9 °F 33.8 °F 93% 29.91 in 10.0 mi East 6.9 mph - N/A   Scattered Clouds
8:36 AM 35.6 °F 31.7 °F 33.8 °F 93% 29.91 in 10.0 mi East 4.6 mph - N/A   Clear
8:56 AM 37.4 °F - 35.6 °F 93% 29.92 in 10.0 mi Calm Calm - N/A   Clear
9:16 AM 39.2 °F 37.0 °F 37.4 °F 93% 29.92 in 10.0 mi East 3.5 mph - N/A   Clear
9:36 AM 42.8 °F 40.1 °F 37.4 °F 81% 29.92 in 10.0 mi ESE 4.6 mph - N/A   Clear
9:56 AM 42.8 °F - 37.4 °F 81% 29.93 in 10.0 mi Calm Calm - N/A   Clear
10:16 AM 44.6 °F 43.1 °F 35.6 °F 71% 29.93 in 10.0 mi South 3.5 mph - N/A   Clear
10:36 AM 44.6 °F 41.4 °F 37.4 °F 76% 29.94 in 10.0 mi South 5.8 mph - N/A   Clear
10:56 AM 44.6 °F 41.4 °F 37.4 °F 76% 29.95 in 10.0 mi SE 5.8 mph - N/A   Clear
11:16 AM 46.4 °F 44.3 °F 37.4 °F 71% 29.96 in 10.0 mi North 4.6 mph - N/A   Clear
11:36 AM 44.6 °F 43.1 °F 35.6 °F 71% 29.97 in 10.0 mi ESE 3.5 mph - N/A   Mostly Cloudy
11:56 AM 46.4 °F 44.3 °F 35.6 °F 66% 29.96 in 10.0 mi South 4.6 mph - N/A   Scattered Clouds
12:16 PM 46.4 °F 44.3 °F 35.6 °F 66% 29.97 in 10.0 mi SSW 4.6 mph - N/A   Clear
12:36 PM 46.4 °F 42.9 °F 35.6 °F 66% 29.97 in 10.0 mi North 6.9 mph - N/A   Clear
12:56 PM 46.4 °F 42.4 °F 37.4 °F 71% 29.97 in 10.0 mi North 8.1 mph - N/A   Clear
1:16 PM 46.4 °F 42.4 °F 37.4 °F 71% 29.97 in 10.0 mi NNE 8.1 mph - N/A   Clear
1:36 PM 46.4 °F 42.9 °F 37.4 °F 71% 29.97 in 10.0 mi North 6.9 mph - N/A   Partly Cloudy
1:56 PM 46.4 °F 43.5 °F 37.4 °F 71% 29.97 in 10.0 mi NNE 5.8 mph - N/A   Partly Cloudy
2:16 PM 46.4 °F 41.5 °F 37.4 °F 71% 29.98 in 10.0 mi North 10.4 mph - N/A   Clear
2:36 PM 46.4 °F 41.1 °F 35.6 °F 66% 29.98 in 10.0 mi North 11.5 mph - N/A   Clear
2:56 PM 46.4 °F 41.1 °F 35.6 °F 66% 29.98 in 10.0 mi North 11.5 mph - N/A   Clear
3:16 PM 46.4 °F 41.9 °F 35.6 °F 66% 29.98 in 10.0 mi North 9.2 mph - N/A   Clear
3:36 PM 46.4 °F 41.5 °F 35.6 °F 66% 29.98 in 10.0 mi North 10.4 mph - N/A   Clear
3:56 PM 46.4 °F 41.5 °F 35.6 °F 66% 29.98 in 10.0 mi North 10.4 mph - N/A   Clear
4:16 PM 46.4 °F 41.9 °F 35.6 °F 66% 29.98 in 10.0 mi North 9.2 mph - N/A   Clear
4:36 PM 46.4 °F 41.9 °F 35.6 °F 66% 29.98 in 10.0 mi North 9.2 mph - N/A   Clear
4:56 PM 46.4 °F 41.5 °F 35.6 °F 66% 29.98 in 10.0 mi North 10.4 mph - N/A   Clear
5:16 PM 46.4 °F 42.4 °F 35.6 °F 66% 29.98 in 10.0 mi North 8.1 mph - N/A   Clear
5:36 PM 46.4 °F 42.9 °F 35.6 °F 66% 29.98 in 10.0 mi North 6.9 mph - N/A   Clear
5:56 PM 46.4 °F 42.4 °F 33.8 °F 62% 29.98 in 10.0 mi North 8.1 mph - N/A   Clear
6:16 PM 46.4 °F 43.5 °F 35.6 °F 66% 29.97 in 10.0 mi WNW 5.8 mph - N/A   Clear
6:36 PM 46.4 °F 43.5 °F 35.6 °F 66% 29.98 in 10.0 mi North 5.8 mph - N/A   Clear
6:56 PM 44.6 °F 42.2 °F 33.8 °F 66% 29.98 in 10.0 mi North 4.6 mph - N/A   Clear
7:16 PM 44.6 °F 41.4 °F 33.8 °F 66% 29.99 in 10.0 mi NNW 5.8 mph - N/A   Clear
7:36 PM 42.8 °F - 33.8 °F 70% 29.99 in 10.0 mi Calm Calm - N/A   Clear
7:56 PM 41.0 °F - 32.0 °F 70% 30.00 in 10.0 mi Calm Calm - N/A   Clear
8:16 PM 37.4 °F 32.1 °F 32.0 °F 81% 30.00 in 10.0 mi NE 6.9 mph - N/A   Clear
8:36 PM 37.4 °F 32.1 °F 30.2 °F 75% 30.01 in 10.0 mi ENE 6.9 mph - N/A   Clear
8:56 PM 35.6 °F 29.9 °F 30.2 °F 81% 30.01 in 10.0 mi East 6.9 mph - N/A   Clear
9:16 PM 35.6 °F 31.7 °F 30.2 °F 81% 30.01 in 10.0 mi East 4.6 mph - N/A   Clear
9:36 PM 33.8 °F 26.4 °F 30.2 °F 87% 30.01 in 10.0 mi East 9.2 mph - N/A   Clear
10:16 PM 33.8 °F 27.0 °F 28.4 °F 81% 30.01 in 10.0 mi East 8.1 mph - N/A   Clear
10:36 PM 33.8 °F 25.8 °F 28.4 °F 81% 30.00 in 10.0 mi East 10.4 mph - N/A   Clear
10:56 PM 33.8 °F 26.4 °F 28.4 °F 81% 30.00 in 10.0 mi East 9.2 mph - N/A   Clear
11:16 PM 33.8 °F 30.8 °F 30.2 °F 87% 30.01 in 10.0 mi East 3.5 mph - N/A   Clear
11:36 PM 33.8 °F 29.6 °F 28.4 °F 81% 30.01 in 10.0 mi East 4.6 mph - N/A   Clear
11:56 PM 32.0 °F 26.4 °F 28.4 °F 87% 30.01 in 10.0 mi East 5.8 mph - N/A   Clear